| time (UTC) | temp C | wind direction | speed KPH | gust KPH | rain 1hr cm | rain 24hr cm | rain mn cm | humidity % | barometer mb |
| 20260906225533 | 35 | 129 | 8.0 | 16.1 | 0.00 | 0.00 | 0.00 | 44 | 1011.2 |
| 20260906225032 | 36 | 0 | 0.0 | 17.7 | 0.00 | 0.00 | 0.00 | 44 | 1011.1 |
| 20260906224552 | 35 | 145 | 6.4 | 19.3 | 0.00 | 0.00 | 0.00 | 44 | 1011.0 |
| 20260906224032 | 35 | 135 | 8.0 | 19.3 | 0.00 | 0.00 | 0.00 | 44 | 1011.1 |
| 20260906223532 | 36 | 141 | 8.0 | 17.7 | 0.00 | 0.00 | 0.00 | 43 | 1011.0 |
| 20260906223055 | 37 | 139 | 8.0 | 14.5 | 0.00 | 0.00 | 0.00 | 41 | 1011.0 |
| 20260906222532 | 37 | 0 | 0.0 | 16.1 | 0.00 | 0.00 | 0.00 | 41 | 1010.9 |
| 20260906222032 | 36 | 0 | 0.0 | 16.1 | 0.00 | 0.00 | 0.00 | 42 | 1011.0 |
| 20260906221600 | 36 | 108 | 1.6 | 14.5 | 0.00 | 0.00 | 0.00 | 42 | 1011.1 |
| 20260906221033 | 35 | 0 | 0.0 | 16.1 | 0.00 | 0.00 | 0.00 | 45 | 1011.1 |
| 20260906220531 | 35 | 80 | 3.2 | 16.1 | 0.00 | 0.00 | 0.00 | 45 | 1011.2 |
| 20260906220049 | 35 | 110 | 4.8 | 17.7 | 0.00 | 0.00 | 0.00 | 44 | 1011.4 |
| 20260906215535 | 36 | 131 | 6.4 | 17.7 | 0.00 | 0.00 | 0.00 | 42 | 1011.3 |
| 20260906215032 | 36 | 151 | 9.7 | 16.1 | 0.00 | 0.00 | 0.00 | 42 | 1011.3 |
| 20260906214554 | 37 | 131 | 0.0 | 20.9 | 0.00 | 0.00 | 0.00 | 41 | 1011.3 |
| 20260906214034 | 37 | 127 | 12.9 | 20.9 | 0.00 | 0.00 | 0.00 | 40 | 1011.3 |
| 20260906213535 | 38 | 156 | 4.8 | 19.3 | 0.00 | 0.00 | 0.00 | 39 | 1011.2 |
| 20260906213101 | 37 | 173 | 0.0 | 16.1 | 0.00 | 0.00 | 0.00 | 41 | 1011.3 |
| 20260906212532 | 37 | 0 | 1.6 | 20.9 | 0.00 | 0.00 | 0.00 | 40 | 1011.3 |
| 20260906212032 | 36 | 165 | 8.0 | 20.9 | 0.00 | 0.00 | 0.00 | 41 | 1011.4 |
| 20260906211552 | 36 | 153 | 4.8 | 20.9 | 0.00 | 0.00 | 0.00 | 42 | 1011.4 |
| 20260906211032 | 36 | 117 | 8.0 | 27.4 | 0.00 | 0.00 | 0.00 | 43 | 1011.6 |
| 20260906210532 | 36 | 122 | 17.7 | 27.4 | 0.00 | 0.00 | 0.00 | 41 | 1011.6 |
| 20260906210050 | 36 | 0 | 0.0 | 16.1 | 0.00 | 0.00 | 0.00 | 42 | 1011.6 |
| 20260906205532 | 36 | 0 | 1.6 | 16.1 | 0.00 | 0.00 | 0.00 | 42 | 1011.7 |
| 20260906205033 | 36 | 94 | 1.6 | 16.1 | 0.00 | 0.00 | 0.00 | 41 | 1011.9 |
| 20260906204604 | 36 | 133 | 3.2 | 19.3 | 0.00 | 0.00 | 0.00 | 41 | 1011.9 |
| 20260906204032 | 37 | 77 | 6.4 | 19.3 | 0.00 | 0.00 | 0.00 | 40 | 1011.9 |
| 20260906203531 | 37 | 0 | 3.2 | 14.5 | 0.00 | 0.00 | 0.00 | 40 | 1012.0 |
| 20260906203057 | 37 | 0 | 1.6 | 19.3 | 0.00 | 0.00 | 0.00 | 41 | 1012.1 |
| 20260906202532 | 37 | 136 | 6.4 | 20.9 | 0.00 | 0.00 | 0.00 | 41 | 1012.0 |
| 20260906202034 | 37 | 153 | 11.3 | 37.0 | 0.00 | 0.00 | 0.00 | 41 | 1012.2 |
| 20260906201605 | 37 | 102 | 9.7 | 37.0 | 0.00 | 0.00 | 0.00 | 42 | 1012.2 |
| 20260906201032 | 37 | 153 | 1.6 | 14.5 | 0.00 | 0.00 | 0.00 | 41 | 1012.2 |
| 20260906200532 | 37 | 120 | 1.6 | 16.1 | 0.00 | 0.00 | 0.00 | 41 | 1012.3 |
| 20260906200054 | 37 | 0 | 8.0 | 17.7 | 0.00 | 0.00 | 0.00 | 40 | 1012.4 |
| 20260906195531 | 37 | 0 | 1.6 | 17.7 | 0.00 | 0.00 | 0.00 | 40 | 1012.5 |
| 20260906195031 | 36 | 141 | 8.0 | 17.7 | 0.00 | 0.00 | 0.00 | 41 | 1012.3 |
| 20260906194551 | 36 | 0 | 0.0 | 29.0 | 0.00 | 0.00 | 0.00 | 42 | 1012.4 |
| 20260906194032 | 36 | 0 | 3.2 | 29.0 | 0.00 | 0.00 | 0.00 | 43 | 1012.5 |
| 20260906193532 | 36 | 98 | 12.9 | 29.0 | 0.00 | 0.00 | 0.00 | 44 | 1012.6 |
| 20260906193053 | 36 | 124 | 6.4 | 19.3 | 0.00 | 0.00 | 0.00 | 41 | 1012.7 |
| 20260906192532 | 37 | 0 | 1.6 | 16.1 | 0.00 | 0.00 | 0.00 | 41 | 1012.7 |
| 20260906192032 | 36 | 152 | 9.7 | 19.3 | 0.00 | 0.00 | 0.00 | 43 | 1012.7 |
| 20260906191548 | 35 | 0 | 12.9 | 19.3 | 0.00 | 0.00 | 0.00 | 43 | 1012.8 |
| 20260906191032 | 36 | 112 | 0.0 | 12.9 | 0.00 | 0.00 | 0.00 | 42 | 1012.9 |
| 20260906190534 | 36 | 0 | 1.6 | 24.1 | 0.00 | 0.00 | 0.00 | 43 | 1012.8 |
| 20260906190054 | 36 | 0 | 1.6 | 24.1 | 0.00 | 0.00 | 0.00 | 45 | 1013.0 |
| 20260906185532 | 35 | 0 | 1.6 | 24.1 | 0.00 | 0.00 | 0.00 | 45 | 1013.0 |
| 20260906185034 | 35 | 0 | 0.0 | 12.9 | 0.00 | 0.00 | 0.00 | 45 | 1013.1 |
| 20260906184555 | 35 | 0 | 0.0 | 12.9 | 0.00 | 0.00 | 0.00 | 45 | 1013.2 |
| 20260906184034 | 35 | 0 | 1.6 | 14.5 | 0.00 | 0.00 | 0.00 | 44 | 1013.3 |
| 20260906183532 | 36 | 0 | 3.2 | 16.1 | 0.00 | 0.00 | 0.00 | 44 | 1013.3 |
| 20260906183048 | 36 | 0 | 0.0 | 16.1 | 0.00 | 0.00 | 0.00 | 44 | 1013.4 |
| 20260906182532 | 36 | 0 | 8.0 | 16.1 | 0.00 | 0.00 | 0.00 | 44 | 1013.5 |
| 20260906182032 | 35 | 234 | 0.0 | 14.5 | 0.00 | 0.00 | 0.00 | 45 | 1013.5 |
| 20260906181554 | 35 | 105 | 9.7 | 14.5 | 0.00 | 0.00 | 0.00 | 44 | 1013.6 |
| 20260906181031 | 35 | 124 | 0.0 | 19.3 | 0.00 | 0.00 | 0.00 | 45 | 1013.7 |
| 20260906180535 | 35 | 101 | 4.8 | 19.3 | 0.00 | 0.00 | 0.00 | 45 | 1013.7 |
| 20260906180106 | 35 | 0 | 0.0 | 16.1 | 0.00 | 0.00 | 0.00 | 46 | 1013.9 |
| 20260906175533 | 35 | 76 | 0.0 | 9.7 | 0.00 | 0.00 | 0.00 | 47 | 1013.9 |
| 20260906175034 | 34 | 66 | 0.0 | 1.6 | 0.00 | 0.00 | 0.00 | 48 | 1014.0 |
| 20260906174553 | 33 | 0 | 0.0 | 1.6 | 0.00 | 0.00 | 0.00 | 47 | 1014.0 |
| 20260906174032 | 33 | 0 | 0.0 | 11.3 | 0.00 | 0.00 | 0.00 | 48 | 1014.2 |
| 20260906173532 | 34 | 0 | 3.2 | 11.3 | 0.00 | 0.00 | 0.00 | 46 | 1014.3 |
| 20260906173044 | 35 | 67 | 0.0 | 24.1 | 0.00 | 0.00 | 0.00 | 46 | 1014.4 |
| 20260906172531 | 35 | 123 | 0.0 | 24.1 | 0.00 | 0.00 | 0.00 | 46 | 1014.4 |
| 20260906172031 | 35 | 98 | 1.6 | 19.3 | 0.00 | 0.00 | 0.00 | 47 | 1014.5 |
| 20260906171557 | 35 | 65 | 3.2 | 19.3 | 0.00 | 0.00 | 0.00 | 47 | 1014.4 |
| 20260906171031 | 34 | 0 | 0.0 | 11.3 | 0.00 | 0.00 | 0.00 | 47 | 1014.5 |
| 20260906170534 | 34 | 0 | 0.0 | 12.9 | 0.00 | 0.00 | 0.00 | 48 | 1014.6 |
| 20260906170100 | 33 | 111 | 1.6 | 20.9 | 0.00 | 0.00 | 0.00 | 47 | 1014.7 |
| 20260906165536 | 33 | 0 | 6.4 | 20.9 | 0.00 | 0.00 | 0.00 | 47 | 1014.8 |
| 20260906165032 | 33 | 0 | 0.0 | 8.0 | 0.00 | 0.00 | 0.00 | 48 | 1014.8 |
| 20260906164550 | 34 | 0 | 0.0 | 6.4 | 0.00 | 0.00 | 0.00 | 47 | 1014.9 |
| 20260906164032 | 34 | 0 | 0.0 | 12.9 | 0.00 | 0.00 | 0.00 | 48 | 1014.9 |
| 20260906163534 | 33 | 0 | 0.0 | 12.9 | 0.00 | 0.00 | 0.00 | 49 | 1015.0 |
| 20260906163106 | 33 | 5 | 4.8 | 12.9 | 0.00 | 0.00 | 0.00 | 50 | 1014.9 |
| 20260906162534 | 33 | 94 | 0.0 | 12.9 | 0.00 | 0.00 | 0.00 | 51 | 1014.9 |
| 20260906162032 | 33 | 0 | 1.6 | 12.9 | 0.00 | 0.00 | 0.00 | 51 | 1014.9 |
| 20260906161551 | 33 | 0 | 0.0 | 3.2 | 0.00 | 0.00 | 0.00 | 52 | 1014.9 |
| 20260906161033 | 33 | 0 | 0.0 | 3.2 | 0.00 | 0.00 | 0.00 | 51 | 1014.9 |
| 20260906160532 | 33 | 0 | 0.0 | 3.2 | 0.00 | 0.00 | 0.00 | 52 | 1014.9 |
| 20260906160053 | 32 | 0 | 0.0 | 8.0 | 0.00 | 0.00 | 0.00 | 54 | 1015.0 |
| 20260906155532 | 32 | 0 | 0.0 | 8.0 | 0.00 | 0.00 | 0.00 | 55 | 1014.9 |
| 20260906155032 | 32 | 49 | 0.0 | 1.6 | 0.00 | 0.00 | 0.00 | 56 | 1014.9 |
| 20260906154557 | 32 | 0 | 0.0 | 1.6 | 0.00 | 0.00 | 0.00 | 56 | 1014.8 |
| 20260906154032 | 32 | 0 | 0.0 | 1.6 | 0.00 | 0.00 | 0.00 | 56 | 1014.8 |
| 20260906153535 | 32 | 0 | 0.0 | 0.0 | 0.00 | 0.00 | 0.00 | 55 | 1014.9 |
| 20260906153053 | 32 | 0 | 0.0 | 0.0 | 0.00 | 0.00 | 0.00 | 56 | 1014.9 |
| 20260906152534 | 32 | 0 | 0.0 | 0.0 | 0.00 | 0.00 | 0.00 | 57 | 1014.9 |
| 20260906152035 | 32 | 0 | 0.0 | 0.0 | 0.00 | 0.00 | 0.00 | 58 | 1014.9 |
| 20260906151551 | 31 | 0 | 0.0 | 0.0 | 0.00 | 0.00 | 0.00 | 59 | 1014.9 |
| 20260906151032 | 31 | 0 | 0.0 | 3.2 | 0.00 | 0.00 | 0.00 | 60 | 1014.8 |
| 20260906150532 | 31 | 0 | 0.0 | 3.2 | 0.00 | 0.00 | 0.00 | 60 | 1014.8 |
| 20260906150056 | 31 | 0 | 0.0 | 3.2 | 0.00 | 0.00 | 0.00 | 60 | 1014.7 |
| 20260906145532 | 30 | 0 | 0.0 | 1.6 | 0.00 | 0.00 | 0.00 | 62 | 1014.7 |
| 20260906145032 | 30 | 0 | 0.0 | 1.6 | 0.00 | 0.00 | 0.00 | 62 | 1014.7 |
| 20260906144554 | 30 | 0 | 0.0 | 1.6 | 0.00 | 0.00 | 0.00 | 62 | 1014.7 |
| 20260906144030 | 30 | 0 | 0.0 | 11.3 | 0.00 | 0.00 | 0.00 | 62 | 1014.7 |
| 20260906143531 | 30 | 0 | 0.0 | 11.3 | 0.00 | 0.00 | 0.00 | 63 | 1014.8 |
| 20260906143050 | 30 | 218 | 0.0 | 1.6 | 0.00 | 0.00 | 0.00 | 63 | 1014.7 |
| 20260906142531 | 30 | 0 | 0.0 | 0.0 | 0.00 | 0.00 | 0.00 | 65 | 1014.8 |
| 20260906142035 | 30 | 0 | 0.0 | 0.0 | 0.00 | 0.00 | 0.00 | 65 | 1014.7 |
| 20260906141551 | 29 | 0 | 0.0 | 0.0 | 0.00 | 0.00 | 0.00 | 68 | 1014.7 |
| 20260906141032 | 28 | 0 | 0.0 | 0.0 | 0.00 | 0.00 | 0.00 | 68 | 1014.7 |
| 20260906140532 | 28 | 0 | 0.0 | 0.0 | 0.00 | 0.00 | 0.00 | 68 | 1014.7 |
| 20260906140055 | 28 | 0 | 0.0 | 0.0 | 0.00 | 0.00 | 0.00 | 68 | 1014.6 |
| 20260906135535 | 28 | 0 | 0.0 | 0.0 | 0.00 | 0.00 | 0.00 | 69 | 1014.7 |
| 20260906135031 | 28 | 0 | 0.0 | 0.0 | 0.00 | 0.00 | 0.00 | 71 | 1014.6 |
| 20260906134602 | 27 | 0 | 0.0 | 0.0 | 0.00 | 0.00 | 0.00 | 72 | 1014.4 |
| 20260906134032 | 27 | 0 | 0.0 | 0.0 | 0.00 | 0.00 | 0.00 | 74 | 1014.4 |
| 20260906133532 | 26 | 0 | 0.0 | 0.0 | 0.00 | 0.00 | 0.00 | 76 | 1014.5 |
| 20260906133054 | 26 | 0 | 0.0 | 0.0 | 0.00 | 0.00 | 0.00 | 76 | 1014.4 |
| 20260906132534 | 26 | 0 | 0.0 | 0.0 | 0.00 | 0.00 | 0.00 | 76 | 1014.5 |
| 20260906132031 | 26 | 0 | 0.0 | 0.0 | 0.00 | 0.00 | 0.00 | 76 | 1014.6 |
| 20260906131551 | 26 | 0 | 0.0 | 0.0 | 0.00 | 0.00 | 0.00 | 76 | 1014.5 |
| 20260906131034 | 26 | 0 | 0.0 | 0.0 | 0.00 | 0.00 | 0.00 | 79 | 1014.5 |
| 20260906130532 | 25 | 0 | 0.0 | 0.0 | 0.00 | 0.00 | 0.00 | 83 | 1014.5 |
| 20260906130055 | 24 | 0 | 0.0 | 0.0 | 0.00 | 0.00 | 0.00 | 85 | 1014.4 |
| 20260906125532 | 23 | 0 | 0.0 | 0.0 | 0.00 | 0.00 | 0.00 | 87 | 1014.3 |
| 20260906125032 | 22 | 0 | 0.0 | 0.0 | 0.00 | 0.00 | 0.00 | 87 | 1014.3 |
| 20260906124551 | 22 | 0 | 0.0 | 0.0 | 0.00 | 0.00 | 0.00 | 87 | 1014.3 |
| 20260906124035 | 22 | 0 | 0.0 | 0.0 | 0.00 | 0.00 | 0.00 | 88 | 1014.2 |
| 20260906123531 | 21 | 0 | 0.0 | 0.0 | 0.00 | 0.00 | 0.00 | 88 | 1014.1 |
| 20260906123052 | 21 | 0 | 0.0 | 0.0 | 0.00 | 0.00 | 0.00 | 87 | 1014.1 |
| 20260906122534 | 21 | 0 | 0.0 | 0.0 | 0.00 | 0.00 | 0.00 | 87 | 1014.1 |
| 20260906122032 | 21 | 0 | 0.0 | 0.0 | 0.00 | 0.00 | 0.00 | 87 | 1014.0 |
| 20260906121554 | 21 | 0 | 0.0 | 0.0 | 0.00 | 0.00 | 0.00 | 87 | 1014.0 |
| 20260906121033 | 22 | 0 | 0.0 | 0.0 | 0.00 | 0.00 | 0.00 | 87 | 1013.9 |
| 20260906120533 | 22 | 0 | 0.0 | 0.0 | 0.00 | 0.00 | 0.00 | 87 | 1013.9 |
| 20260906120051 | 22 | 0 | 0.0 | 0.0 | 0.00 | 0.00 | 0.00 | 86 | 1013.7 |
| 20260906115532 | 22 | 0 | 0.0 | 0.0 | 0.00 | 0.00 | 0.00 | 86 | 1013.6 |
| 20260906115033 | 22 | 0 | 0.0 | 0.0 | 0.00 | 0.00 | 0.00 | 86 | 1013.6 |
| 20260906114555 | 22 | 0 | 0.0 | 0.0 | 0.00 | 0.00 | 0.00 | 86 | 1013.7 |
| 20260906114034 | 22 | 0 | 0.0 | 0.0 | 0.00 | 0.00 | 0.00 | 87 | 1013.6 |
| 20260906113531 | 22 | 0 | 0.0 | 0.0 | 0.00 | 0.00 | 0.00 | 86 | 1013.6 |
| 20260906113059 | 22 | 0 | 0.0 | 0.0 | 0.00 | 0.00 | 0.00 | 86 | 1013.4 |
| 20260906112533 | 22 | 0 | 0.0 | 0.0 | 0.00 | 0.00 | 0.00 | 85 | 1013.4 |
| 20260906112032 | 22 | 0 | 0.0 | 0.0 | 0.00 | 0.00 | 0.00 | 84 | 1013.4 |
| 20260906111604 | 22 | 0 | 0.0 | 0.0 | 0.00 | 0.00 | 0.00 | 85 | 1013.3 |
| 20260906111033 | 22 | 0 | 0.0 | 0.0 | 0.00 | 0.00 | 0.00 | 85 | 1013.2 |
| 20260906110533 | 22 | 0 | 0.0 | 0.0 | 0.00 | 0.00 | 0.00 | 84 | 1013.2 |
| 20260906110051 | 22 | 0 | 0.0 | 0.0 | 0.00 | 0.00 | 0.00 | 84 | 1013.1 |
| 20260906105531 | 22 | 0 | 0.0 | 0.0 | 0.00 | 0.00 | 0.00 | 84 | 1013.1 |
| 20260906105033 | 22 | 0 | 0.0 | 0.0 | 0.00 | 0.00 | 0.00 | 84 | 1013.1 |
| 20260906104550 | 22 | 0 | 0.0 | 0.0 | 0.00 | 0.00 | 0.00 | 84 | 1013.1 |
| 20260906104032 | 22 | 0 | 0.0 | 0.0 | 0.00 | 0.00 | 0.00 | 84 | 1013.1 |
| 20260906103532 | 22 | 0 | 0.0 | 0.0 | 0.00 | 0.00 | 0.00 | 84 | 1013.2 |
| 20260906103054 | 22 | 0 | 0.0 | 0.0 | 0.00 | 0.00 | 0.00 | 83 | 1013.2 |
| 20260906102532 | 23 | 0 | 0.0 | 0.0 | 0.00 | 0.00 | 0.00 | 84 | 1013.2 |
| 20260906102036 | 23 | 0 | 0.0 | 0.0 | 0.00 | 0.00 | 0.00 | 84 | 1013.2 |
| 20260906101551 | 23 | 0 | 0.0 | 0.0 | 0.00 | 0.00 | 0.00 | 83 | 1013.1 |
| 20260906101031 | 23 | 0 | 0.0 | 0.0 | 0.00 | 0.00 | 0.00 | 83 | 1013.1 |
| 20260906100534 | 23 | 0 | 0.0 | 0.0 | 0.00 | 0.00 | 0.00 | 83 | 1013.1 |
| 20260906100051 | 23 | 0 | 0.0 | 0.0 | 0.00 | 0.00 | 0.00 | 83 | 1013.1 |
| 20260906095534 | 23 | 0 | 0.0 | 0.0 | 0.00 | 0.00 | 0.00 | 83 | 1013.1 |
| 20260906095031 | 23 | 0 | 0.0 | 0.0 | 0.00 | 0.00 | 0.00 | 83 | 1013.1 |
| 20260906094552 | 23 | 0 | 0.0 | 0.0 | 0.00 | 0.00 | 0.00 | 83 | 1013.0 |
| 20260906094032 | 23 | 0 | 0.0 | 0.0 | 0.00 | 0.00 | 0.00 | 82 | 1013.1 |
| 20260906093532 | 23 | 0 | 0.0 | 0.0 | 0.00 | 0.00 | 0.00 | 82 | 1013.0 |
| 20260906093054 | 23 | 0 | 0.0 | 0.0 | 0.00 | 0.00 | 0.00 | 82 | 1013.0 |
| 20260906092535 | 23 | 0 | 0.0 | 0.0 | 0.00 | 0.00 | 0.00 | 81 | 1013.0 |
| 20260906092032 | 23 | 0 | 0.0 | 0.0 | 0.00 | 0.00 | 0.00 | 81 | 1013.0 |
| 20260906091553 | 23 | 0 | 0.0 | 0.0 | 0.00 | 0.00 | 0.00 | 82 | 1013.0 |
| 20260906091033 | 23 | 0 | 0.0 | 0.0 | 0.00 | 0.00 | 0.00 | 81 | 1013.0 |
| 20260906090531 | 23 | 0 | 0.0 | 0.0 | 0.00 | 0.00 | 0.00 | 81 | 1013.0 |
| 20260906090056 | 23 | 0 | 0.0 | 0.0 | 0.00 | 0.00 | 0.00 | 81 | 1012.9 |
| 20260906085532 | 23 | 0 | 0.0 | 0.0 | 0.00 | 0.00 | 0.00 | 81 | 1012.9 |
| 20260906085033 | 23 | 0 | 0.0 | 0.0 | 0.00 | 0.00 | 0.00 | 80 | 1012.9 |
| 20260906084553 | 23 | 0 | 0.0 | 0.0 | 0.00 | 0.00 | 0.00 | 80 | 1012.9 |
| 20260906084033 | 23 | 0 | 0.0 | 0.0 | 0.00 | 0.00 | 0.00 | 79 | 1012.8 |
| 20260906083535 | 23 | 0 | 0.0 | 0.0 | 0.00 | 0.00 | 0.00 | 79 | 1012.8 |
| 20260906083055 | 23 | 0 | 0.0 | 0.0 | 0.00 | 0.00 | 0.00 | 78 | 1012.8 |
| 20260906082531 | 23 | 0 | 0.0 | 0.0 | 0.00 | 0.00 | 0.00 | 78 | 1012.9 |
| 20260906082036 | 24 | 0 | 0.0 | 0.0 | 0.00 | 0.00 | 0.00 | 78 | 1012.8 |
| 20260906081552 | 24 | 0 | 0.0 | 0.0 | 0.00 | 0.00 | 0.00 | 78 | 1012.8 |
| 20260906081032 | 24 | 0 | 0.0 | 0.0 | 0.00 | 0.00 | 0.00 | 77 | 1012.8 |
| 20260906080532 | 24 | 0 | 0.0 | 0.0 | 0.00 | 0.00 | 0.00 | 76 | 1012.9 |
| 20260906080057 | 25 | 0 | 0.0 | 0.0 | 0.00 | 0.00 | 0.00 | 77 | 1012.9 |
| 20260906075531 | 25 | 0 | 0.0 | 0.0 | 0.00 | 0.00 | 0.00 | 76 | 1012.9 |
| 20260906075031 | 25 | 0 | 0.0 | 0.0 | 0.00 | 0.00 | 0.00 | 76 | 1012.8 |
| 20260906074551 | 25 | 0 | 0.0 | 0.0 | 0.00 | 0.00 | 0.00 | 76 | 1012.9 |
| 20260906074032 | 25 | 0 | 0.0 | 0.0 | 0.00 | 0.00 | 0.00 | 76 | 1012.8 |
| 20260906073532 | 25 | 0 | 0.0 | 0.0 | 0.00 | 0.00 | 0.00 | 75 | 1012.9 |
| 20260906073055 | 25 | 0 | 0.0 | 0.0 | 0.00 | 0.00 | 0.00 | 75 | 1012.9 |
| 20260906072532 | 25 | 0 | 0.0 | 0.0 | 0.00 | 0.00 | 0.00 | 75 | 1012.9 |
| 20260906072032 | 25 | 0 | 0.0 | 0.0 | 0.00 | 0.00 | 0.00 | 75 | 1012.9 |
| 20260906071601 | 25 | 0 | 0.0 | 0.0 | 0.00 | 0.00 | 0.00 | 74 | 1013.0 |
| 20260906071032 | 25 | 0 | 0.0 | 0.0 | 0.00 | 0.00 | 0.00 | 74 | 1013.1 |
| 20260906070532 | 25 | 0 | 0.0 | 0.0 | 0.00 | 0.00 | 0.00 | 74 | 1013.2 |
| 20260906070050 | 25 | 0 | 0.0 | 0.0 | 0.00 | 0.00 | 0.00 | 74 | 1013.3 |
| 20260906065532 | 25 | 0 | 0.0 | 0.0 | 0.00 | 0.00 | 0.00 | 74 | 1013.4 |
| 20260906065032 | 25 | 0 | 0.0 | 0.0 | 0.00 | 0.00 | 0.00 | 74 | 1013.4 |
| 20260906064553 | 25 | 0 | 0.0 | 0.0 | 0.00 | 0.00 | 0.00 | 74 | 1013.4 |
| 20260906064031 | 25 | 0 | 0.0 | 0.0 | 0.00 | 0.00 | 0.00 | 73 | 1013.4 |
| 20260906063533 | 25 | 0 | 0.0 | 0.0 | 0.00 | 0.00 | 0.00 | 73 | 1013.6 |
| 20260906063057 | 26 | 0 | 0.0 | 0.0 | 0.00 | 0.00 | 0.00 | 73 | 1013.4 |
| 20260906062533 | 26 | 0 | 0.0 | 0.0 | 0.00 | 0.00 | 0.00 | 72 | 1013.5 |
| 20260906062032 | 26 | 0 | 0.0 | 0.0 | 0.00 | 0.00 | 0.00 | 72 | 1013.6 |
| 20260906061556 | 26 | 0 | 0.0 | 0.0 | 0.00 | 0.00 | 0.00 | 71 | 1013.7 |
| 20260906061031 | 26 | 0 | 0.0 | 0.0 | 0.00 | 0.00 | 0.00 | 71 | 1013.7 |
| 20260906060532 | 26 | 0 | 0.0 | 0.0 | 0.00 | 0.00 | 0.00 | 71 | 1013.7 |
| 20260906060050 | 26 | 0 | 0.0 | 0.0 | 0.00 | 0.00 | 0.00 | 70 | 1013.8 |
| 20260906055534 | 26 | 0 | 0.0 | 0.0 | 0.00 | 0.00 | 0.00 | 70 | 1013.8 |
| 20260906055031 | 26 | 0 | 0.0 | 0.0 | 0.00 | 0.00 | 0.00 | 69 | 1013.7 |
| 20260906054554 | 27 | 0 | 0.0 | 0.0 | 0.00 | 0.00 | 0.00 | 69 | 1013.7 |
| 20260906054035 | 27 | 0 | 0.0 | 1.6 | 0.00 | 0.00 | 0.00 | 69 | 1013.6 |
| 20260906053532 | 27 | 0 | 0.0 | 3.2 | 0.00 | 0.00 | 0.00 | 68 | 1013.6 |
| 20260906053053 | 27 | 0 | 0.0 | 3.2 | 0.00 | 0.00 | 0.00 | 68 | 1013.6 |
| 20260906052535 | 27 | 0 | 0.0 | 3.2 | 0.00 | 0.00 | 0.00 | 68 | 1013.7 |
| 20260906052033 | 27 | 0 | 0.0 | 4.8 | 0.00 | 0.00 | 0.00 | 67 | 1013.8 |
| 20260906051603 | 27 | 0 | 0.0 | 6.4 | 0.00 | 0.00 | 0.00 | 66 | 1013.8 |
| 20260906051034 | 27 | 134 | 0.0 | 11.3 | 0.00 | 0.00 | 0.00 | 66 | 1013.7 |
| 20260906050535 | 28 | 0 | 1.6 | 12.9 | 0.00 | 0.00 | 0.00 | 65 | 1013.7 |
| 20260906050054 | 28 | 141 | 6.4 | 12.9 | 0.00 | 0.00 | 0.00 | 65 | 1013.7 |
| 20260906045536 | 28 | 144 | 4.8 | 12.9 | 0.00 | 0.00 | 0.00 | 65 | 1013.7 |
| 20260906045033 | 28 | 142 | 1.6 | 12.9 | 0.00 | 0.00 | 0.00 | 65 | 1013.8 |
| 20260906044552 | 28 | 0 | 4.8 | 12.9 | 0.00 | 0.00 | 0.00 | 65 | 1013.8 |
| 20260906044033 | 28 | 134 | 3.2 | 14.5 | 0.00 | 0.00 | 0.00 | 64 | 1013.7 |
| 20260906043533 | 28 | 0 | 8.0 | 14.5 | 0.00 | 0.00 | 0.00 | 64 | 1013.6 |
| 20260906043049 | 28 | 126 | 6.4 | 17.7 | 0.00 | 0.00 | 0.00 | 64 | 1013.6 |
| 20260906042532 | 28 | 131 | 8.0 | 17.7 | 0.00 | 0.00 | 0.00 | 63 | 1013.6 |
| 20260906042035 | 28 | 127 | 9.7 | 19.3 | 0.00 | 0.00 | 0.00 | 63 | 1013.6 |
| 20260906041555 | 29 | 134 | 12.9 | 19.3 | 0.00 | 0.00 | 0.00 | 63 | 1013.5 |
| 20260906041036 | 29 | 120 | 9.7 | 19.3 | 0.00 | 0.00 | 0.00 | 63 | 1013.5 |
| 20260906040533 | 29 | 137 | 8.0 | 17.7 | 0.00 | 0.00 | 0.00 | 63 | 1013.5 |
| 20260906040054 | 29 | 122 | 8.0 | 16.1 | 0.00 | 0.00 | 0.00 | 63 | 1013.5 |
| 20260906035533 | 29 | 139 | 8.0 | 14.5 | 0.00 | 0.00 | 0.00 | 62 | 1013.4 |
| 20260906035034 | 28 | 132 | 8.0 | 14.5 | 0.00 | 0.00 | 0.00 | 62 | 1013.5 |
| 20260906034553 | 28 | 122 | 4.8 | 11.3 | 0.00 | 0.00 | 0.00 | 60 | 1013.4 |
| 20260906034033 | 28 | 124 | 3.2 | 12.9 | 0.00 | 0.00 | 0.00 | 59 | 1013.4 |
| 20260906033536 | 28 | 117 | 1.6 | 12.9 | 0.00 | 0.00 | 0.00 | 58 | 1013.3 |
| 20260906033048 | 28 | 109 | 1.6 | 12.9 | 0.00 | 0.00 | 0.00 | 58 | 1013.3 |
| 20260906032533 | 28 | 110 | 1.6 | 11.3 | 0.00 | 0.00 | 0.00 | 57 | 1013.2 |
| 20260906032035 | 28 | 124 | 1.6 | 9.7 | 0.00 | 0.00 | 0.00 | 58 | 1013.2 |
| 20260906031551 | 28 | 105 | 1.6 | 9.7 | 0.00 | 0.00 | 0.00 | 58 | 1013.2 |
| 20260906031034 | 28 | 0 | 0.0 | 1.6 | 0.00 | 0.00 | 0.00 | 57 | 1013.0 |
| 20260906030534 | 28 | 0 | 0.0 | 0.0 | 0.00 | 0.00 | 0.00 | 57 | 1013.1 |
| 20260906030053 | 28 | 0 | 0.0 | 0.0 | 0.00 | 0.00 | 0.00 | 56 | 1012.9 |
| 20260906025534 | 28 | 0 | 0.0 | 0.0 | 0.00 | 0.00 | 0.00 | 56 | 1012.8 |
| 20260906025034 | 28 | 0 | 0.0 | 0.0 | 0.00 | 0.00 | 0.00 | 56 | 1012.7 |
| 20260906024619 | 28 | 0 | 0.0 | 0.0 | 0.00 | 0.00 | 0.00 | 56 | 1012.6 |
| 20260906024033 | 28 | 0 | 0.0 | 0.0 | 0.00 | 0.00 | 0.00 | 56 | 1012.5 |
| 20260906023533 | 28 | 0 | 0.0 | 0.0 | 0.00 | 0.00 | 0.00 | 56 | 1012.5 |
| 20260906023053 | 28 | 0 | 0.0 | 0.0 | 0.00 | 0.00 | 0.00 | 56 | 1012.5 |
| 20260906022533 | 28 | 0 | 0.0 | 0.0 | 0.00 | 0.00 | 0.00 | 55 | 1012.4 |
| 20260906022037 | 28 | 0 | 0.0 | 0.0 | 0.00 | 0.00 | 0.00 | 55 | 1012.4 |
| 20260906021553 | 28 | 0 | 0.0 | 0.0 | 0.00 | 0.00 | 0.00 | 55 | 1012.3 |
| 20260906021033 | 28 | 0 | 0.0 | 0.0 | 0.00 | 0.00 | 0.00 | 53 | 1012.3 |
| 20260906020534 | 29 | 0 | 0.0 | 0.0 | 0.00 | 0.00 | 0.00 | 53 | 1012.2 |
| 20260906020059 | 29 | 0 | 0.0 | 0.0 | 0.00 | 0.00 | 0.00 | 52 | 1012.0 |
| 20260906015534 | 29 | 0 | 0.0 | 0.0 | 0.00 | 0.00 | 0.00 | 52 | 1012.0 |
| 20260906015033 | 29 | 0 | 0.0 | 0.0 | 0.00 | 0.00 | 0.00 | 52 | 1011.9 |
| 20260906014602 | 29 | 0 | 0.0 | 0.0 | 0.00 | 0.00 | 0.00 | 51 | 1011.8 |
| 20260906014033 | 30 | 0 | 0.0 | 0.0 | 0.00 | 0.00 | 0.00 | 50 | 1011.8 |
| 20260906013534 | 30 | 0 | 0.0 | 0.0 | 0.00 | 0.00 | 0.00 | 49 | 1011.7 |
| 20260906013054 | 30 | 0 | 0.0 | 0.0 | 0.00 | 0.00 | 0.00 | 49 | 1011.6 |
| 20260906012533 | 31 | 0 | 0.0 | 0.0 | 0.00 | 0.00 | 0.00 | 48 | 1011.5 |
| 20260906012033 | 31 | 0 | 0.0 | 0.0 | 0.00 | 0.00 | 0.00 | 47 | 1011.5 |
| 20260906011553 | 31 | 0 | 0.0 | 0.0 | 0.00 | 0.00 | 0.00 | 46 | 1011.5 |
| 20260906011033 | 32 | 0 | 0.0 | 0.0 | 0.00 | 0.00 | 0.00 | 46 | 1011.5 |
| 20260906010533 | 32 | 0 | 0.0 | 0.0 | 0.00 | 0.00 | 0.00 | 45 | 1011.4 |
| 20260906010113 | 32 | 0 | 0.0 | 0.0 | 0.00 | 0.00 | 0.00 | 44 | 1011.4 |
| 20260906005534 | 32 | 0 | 0.0 | 0.0 | 0.00 | 0.00 | 0.00 | 43 | 1011.3 |
| 20260906005037 | 33 | 0 | 0.0 | 0.0 | 0.00 | 0.00 | 0.00 | 43 | 1011.4 |
| 20260906004554 | 33 | 0 | 0.0 | 6.4 | 0.00 | 0.00 | 0.00 | 42 | 1011.3 |
| 20260906004031 | 33 | 0 | 0.0 | 6.4 | 0.00 | 0.00 | 0.00 | 41 | 1011.2 |
| 20260906003534 | 34 | 0 | 0.0 | 6.4 | 0.00 | 0.00 | 0.00 | 40 | 1011.1 |
| 20260906003110 | 34 | 0 | 0.0 | 12.9 | 0.00 | 0.00 | 0.00 | 40 | 1011.2 |
| 20260906002533 | 34 | 136 | 6.4 | 12.9 | 0.00 | 0.00 | 0.00 | 40 | 1011.1 |
| 20260906002036 | 35 | 128 | 4.8 | 12.9 | 0.00 | 0.00 | 0.00 | 40 | 1011.2 |
| 20260906001551 | 35 | 129 | 4.8 | 11.3 | 0.00 | 0.00 | 0.00 | 40 | 1011.2 |
| 20260906001036 | 35 | 0 | 0.0 | 9.7 | 0.00 | 0.00 | 0.00 | 39 | 1011.2 |
| 20260906000533 | 35 | 152 | 1.6 | 11.3 | 0.00 | 0.00 | 0.00 | 39 | 1011.2 |
| 20260906000104 | 35 | 153 | 3.2 | 14.5 | 0.00 | 0.00 | 0.00 | 39 | 1011.2 |
| 20260905235533 | 35 | 134 | 4.8 | 16.1 | 0.00 | 0.00 | 0.00 | 39 | 1011.2 |
| 20260905235034 | 35 | 143 | 3.2 | 17.7 | 0.00 | 0.00 | 0.00 | 39 | 1011.1 |
| 20260905234603 | 35 | 161 | 9.7 | 17.7 | 0.00 | 0.00 | 0.00 | 39 | 1011.0 |
| 20260905234033 | 35 | 167 | 9.7 | 22.5 | 0.00 | 0.00 | 0.00 | 38 | 1011.0 |
| 20260905233534 | 35 | 172 | 9.7 | 22.5 | 0.00 | 0.00 | 0.00 | 38 | 1011.0 |
| 20260905233053 | 35 | 144 | 9.7 | 17.7 | 0.00 | 0.00 | 0.00 | 38 | 1011.0 |
| 20260905232533 | 35 | 136 | 11.3 | 17.7 | 0.00 | 0.00 | 0.00 | 38 | 1011.0 |
| 20260905232034 | 35 | 125 | 4.8 | 17.7 | 0.00 | 0.00 | 0.00 | 37 | 1011.0 |
| 20260905231552 | 36 | 131 | 8.0 | 20.9 | 0.00 | 0.00 | 0.00 | 37 | 1011.0 |
| 20260905231034 | 36 | 125 | 1.6 | 24.1 | 0.00 | 0.00 | 0.00 | 37 | 1010.9 |
| 20260905230535 | 36 | 120 | 14.5 | 24.1 | 0.00 | 0.00 | 0.00 | 36 | 1011.0 |
| 20260905230100 | 36 | 138 | 8.0 | 17.7 | 0.00 | 0.00 | 0.00 | 36 | 1010.9 |